ARIANE 44LP DEB, 33541

Orbit data source: Space-Track

ARIANE 44LP DEB, 33541 is space debris in HEO originally from a launch on Sun, 11 Dec 1988 UTC launched from the French Guiana (FRGUI). Debris objects in space refer to the collection of defunct objects orbiting the Earth. Examples of debris include non-operational satellites, rocket bodies, and fragments generated from explosions, collisions, or faulty payload assembly.

Loading next visibility...
Identifier
33541, 1988-109Q
Orbit
HEO
Country
Flag of FRFR
Related business
Manufacturer
Unknown
Mission
Spacecraft
Bus & Motor
Unknown
Mass
Unknown
Launch date (UTC)
1988-12-11 (37 years ago)
Launch vehicle
Unknown
Launch site
French Guiana (FRGUI)
Object type
Payload
Rocket body
Debris
Shape & HBR
Unknown shape, 0.3 m
Radar Cross Section
Medium (>0.1 m² and <1 m²)

Expand to show TLE details & history
Last TLE update: 2 days ago

TLE from 2 days ago
0 ARIANE 44LP DEB
1 33541U 88109Q   26124.22721825 -.00000167  00000-0 -68203-3 0  9994
2 33541   7.2126 298.7130 7101416 302.4379 306.6174  2.23924404191338
Epoch: 2026-05-04T05:27Z
TLE epoch observation values (Epoch: 2026-05-04T05:27:11.656Z)
Latitude
1.91556°
Longitude
159.276°
Altitude
19,496.183 km
Speed
3.829 km/s
True Right ascension
06h 52m 46s
True Declination
1° 54' 45"
Sunlit
Object was in daylight at epoch
Visualization orbit readout
Latitude
Unknown
Longitude
Unknown
Altitude
Unknown
Speed
Unknown
Apparent Right ascension
Unknown
Apparent Declination
Unknown
Sunlit
N/A
Visualization observer readout
Local Sidereal Time
09:46:23
Azimuth
Unknown
Elevation
Unknown
Doppler factor
Unknown
Orbital elements
Apogee altitude
35,835.66 km
Perigee altitude
776.84 km
Semi-major axis
24,684.387 km
Eccentricity
0.71014
Inclination
7.2126°
RAAN
298.713°
Arg. of periapsis
302.4379°
True anomaly
222.02304°
Mean anomaly
306.6174°
Eccentric anomaly
266.02706°
Mean motion
0.55964 °/min
Orbital period
643.27 mins
BSTAR
-0.00068203
Loading maneuver chart data...
Computing Atmospheric mass density...
Loading historical data...
Loading historical data...
Loading historical data...
Loading historical data...
Loading historical data...
Loading historical data...
Loading historical data...

Documentation

Showing up to 5 results
|